Location: São Paulo
(23.5507°S, 46.6334°W)
Time: 02:10:49
(UTC-03:00)

A-11 Canister half - Pass Details

Date: 13 February 2026
Orbit: 1525 x 1683 km, 47.3° (Epoch: 11 March)

Event Time Altitude Azimuth Distance (km) Brightness Sun altitude
Exits shadow 02:54:20 32° 34° (NE) 2,566 10.0 -37.4°
Maximum altitude 02:56:08 34° 54° (NE) 2,497 10.1 -37.0°
Drops below altitude 10° 03:04:49 10° 113° (ESE) 3,945 11.9 -35.5°
Sets 03:08:25 0° 122° (ESE) 4,946 12.7 -34.9°
